Tracking 25709 objects as of 23-May-2022
HD Live streaming from Space Station
objects crossing your sky now

SL-14 DEB

Track SL-14 DEB now!
10-day predictions


NORAD ID: 45330
Int'l Code: 1991-056BU
Perigee: 1,071.8 km
Apogee: 1,200.9 km
Inclination: 82.6 °
Period: 107.9 minutes
Semi major axis: 7507 km
RCS: Unknown
Launch date: August 15, 1991
Source: Commonwealth of Independent States (former USSR) (CIS)
Launch site: PLESETSK MISSILE AND SPACE COMPLEX (PKMTR)

Note: This is SATELLITE DEBRIS
aabbcc
Your satellite tracking list
Your tracking list is empty




NASA's NSSDC Master Catalog

Two Line Element Set (TLE):
1 45330U 91056BU  22141.85986594  .00001558  00000-0  30177-2 0  9999
2 45330  82.5653  93.0141 0085982 111.0145 250.0212 13.34670343110311
Source of the keplerian elements: AFSPC